[[{"header":{"parameterUnit":"m.s-1","parameterCategory":1,"la1":30.2991,"la2":30.254,"lo1":-89.0895,"lo2":-89.0444,"dy":0.0017,"dx":0.0017,"nx":28,"ny":28,"refTime":"2026-02-11T09:00:00:Z","depth":0,"parameterNumber":2,"parameterNumberName":"U-component_of_WINDS"},"data":[0,0,0,0,0,0,0,0,0,0,0,0,0,0,0,0,0,0,0,0,0,0,0,0,0,0,0,0,0,0,0,0,0,0,0,0,0,0,0,0,0,0,0,0,0,0,0,0,0,0,0,0,0,0,0,0,0,0,1.4221,1.4222,0,1.4359,1.4361,1.4362,1.4396,1.4395,1.4394,1.4393,1.4533,1.4537,1.4542,0,0,0,0,0,0,0,0,0,0,0,0,0,1.3984,1.3988,1.4221,1.4222,1.4224,1.4359,1.4361,1.4363,1.4396,1.4395,1.4394,1.4393,1.4532,1.4537,1.4542,0,0,0,0,0,0,0,0,0,0,0,0,0,1.4101,1.3989,1.422,1.4257,1.4262,1.4359,1.4361,1.4363,1.4396,1.4395,1.4393,1.4392,1.453,1.4536,1.4543,1.4613,0,0,1.4564,1.4567,0,0,0,0,0,0,0,0,1.4094,1.4109,1.425,1.4255,1.426,1.4359,1.4329,1.4447,1.4396,1.4345,1.4393,1.4391,1.4476,1.4487,1.4516,1.462,1.4626,1.4565,1.4569,1.4572,1.4574,0,0,0,0,0,0,0,1.4086,1.4104,1.4275,1.4252,1.4258,1.4266,1.4281,1.4351,1.4416,1.4349,1.4352,1.4368,1.4479,1.4509,1.452,1.4628,1.4565,1.4571,1.4575,1.4578,1.4796,1.4798,0,0,0,0,0,0,1.4072,1.4097,1.4271,1.4279,1.4172,1.4271,1.4288,1.4328,1.4416,1.4428,1.4369,1.4369,1.4498,1.4512,1.4525,1.4613,1.4572,1.4578,1.4582,1.4794,1.4796,1.4798,0,0,0,0,0,0,1.4066,1.4087,1.4265,1.4189,1.4212,1.4277,1.4322,1.4332,1.4363,1.4431,1.4442,1.4389,1.4498,1.4515,1.4591,1.4618,1.4581,1.4588,1.4792,1.4795,1.4797,1.4789,0,0,0,0,0,0,1.4059,1.4085,1.4112,1.4189,1.4216,1.433,1.4323,1.4336,1.4375,1.4376,1.4452,1.4464,1.4498,1.4581,1.4598,1.4627,1.4593,1.479,1.4794,1.4797,1.4787,1.4791,1.4794,0,0,0,0,0,1.4051,1.4104,1.4113,1.4134,1.4252,1.4331,1.4346,1.4386,1.4377,1.4405,1.4449,1.4461,1.4612,1.4588,1.4608,1.4639,1.4789,1.4793,1.4796,1.4785,1.479,1.4794,0,0,0,0,0,0,1.4027,1.4114,1.4126,1.4205,1.4261,1.4337,1.4373,1.4389,1.4447,1.4446,1.4492,1.4509,1.4582,1.4618,1.459,1.4712,1.47,1.4708,1.4685,1.469,1.4694,1.4683,1.4599,0,0,0,0,0,1.4031,1.4088,1.4162,1.4224,1.4252,1.4308,1.4343,1.4369,1.4428,1.4451,1.4501,1.4557,1.4617,1.4656,1.4715,1.4792,1.481,1.4824,1.4827,1.483,1.4836,1.488,1.4888,1.4811,1.4811,1.4811,0,0,1.404,1.4095,1.4128,1.4221,1.4267,1.4325,1.4327,1.4388,1.4432,1.446,1.4535,1.4574,1.4639,1.4717,1.4753,1.4749,1.4861,1.4835,1.4836,1.4841,1.4885,1.4892,1.4899,1.4813,1.4813,1.4812,0,0,1.4085,1.4133,1.419,1.4237,1.4307,1.4344,1.4357,1.4431,1.4458,1.4534,1.4557,1.461,1.4712,1.4759,1.4795,1.486,1.4874,1.4878,1.4896,1.4939,1.4945,1.495,1.4974,1.4981,1.4884,1.4884,1.4884,0,1.4087,1.4176,1.4218,1.4279,1.4319,1.4349,1.4408,1.445,1.4535,1.4563,1.4557,1.4688,1.4734,1.4823,1.4839,1.4867,1.4885,1.4869,1.4941,1.4947,1.4952,1.4975,1.4984,1.4884,1.4884,1.4884,1.4884,0,1.4175,1.4236,1.4275,1.4357,1.4402,1.4462,1.4512,1.4553,1.4575,1.4612,1.469,1.4747,1.4818,1.4841,1.4863,1.4933,1.4929,1.4932,1.4921,1.4959,1.4981,1.499,1.4884,1.4884,1.4884,1.4884,0,0,1.4208,1.4314,1.4327,1.4366,1.4445,1.4494,1.4555,1.4626,1.4659,1.4717,1.477,1.4857,1.486,1.4902,1.4929,1.4967,1.5015,1.4965,1.4967,1.4972,1.5096,1.5094,1.5103,1.5025,1.5026,1.5028,1.5091,0,1.4263,1.4374,1.4414,1.4505,1.4562,1.4592,1.4645,1.47,1.4737,1.4791,1.4831,1.4892,1.4892,1.4918,1.4956,1.5,1.504,1.4996,1.5073,1.5076,1.5056,1.5115,1.5112,1.5169,1.51,1.5101,1.5102,0,1.4342,1.4403,1.4499,1.4573,1.4599,1.4646,1.4714,1.4766,1.4828,1.4853,1.49,1.4925,1.499,1.4976,1.5067,1.5036,1.507,1.5097,1.51,1.5108,1.5091,1.5124,1.5188,1.5196,1.5116,1.5115,1.5114,0,1.4357,1.4462,1.4534,1.4566,1.4653,1.4686,1.4724,1.4785,1.4825,1.4885,1.4912,1.4978,1.5015,1.5066,1.5108,1.5094,1.5195,1.5184,1.5217,1.5215,1.5236,1.5234,1.5305,1.5258,1.5258,1.5258,1.5258,0,1.4414,1.4472,1.4542,1.4586,1.4652,1.4697,1.4761,1.4801,1.4856,1.4908,1.4937,1.4986,1.5039,1.5094,1.5128,1.5198,1.5214,1.5235,1.5243,1.5233,1.523,1.5255,1.5252,1.526,1.526,1.5259,1.5259,0,1.4441,1.449,1.457,1.4647,1.4668,1.4713,1.4779,1.4823,1.4861,1.4927,1.4945,1.5006,1.5073,1.512,1.5206,1.5229,1.5304,1.5312,1.5283,1.5287,1.5317,1.5313,1.5407,1.5421,1.5364,1.5365,1.5365,0,1.4474,1.452,1.4602,1.4639,1.4678,1.4737,1.4779,1.4826,1.4868,1.4944,1.4979,1.5048,1.5105,1.5211,1.5262,1.5328,1.5338,1.5366,1.5348,1.5336,1.5339,1.5335,1.534,1.5369,1.5369,1.5369,1.537,0,1.4528,1.455,1.4609,1.4678,1.4727,1.4782,1.4838,1.4867,1.4924,1.497,1.5039,1.5084,1.5172,1.5241,1.5312,1.5351,1.537,1.5375,1.5386,1.5375,1.5357,1.5367,1.529,1.5373,1.5372,1.5372,1.5372,1.5372,1.4559,1.4601,1.4666,1.4731,1.4779,1.4831,1.4876,1.4921,1.498,1.5055,1.508,1.5151,1.5214,1.5312,1.5352,1.5409,1.5407,1.5423,1.5427,1.543,1.543,1.5348,1.5422,1.5422,1.5422,1.5422,1.5422,0,1.4614,1.4657,1.4717,1.4795,1.4847,1.4861,1.4924,1.4966,1.5029,1.5086,1.5143,1.5223,1.5289,1.5347,1.5416,1.5451,1.5461,1.5467,1.5465,1.5474,1.5427,1.5411,1.5458,1.5458,1.5457,1.5457,1.5457,1.5457,1.4648,1.4721,1.4751,1.4847,1.489,1.4961,1.4996,1.5044,1.509,1.5178,1.5234,1.5272,1.5329,1.5403,1.5465,1.548,1.5504,1.5508,1.5526,1.5481,1.5477,1.5473,1.5457,1.5513,1.5513,1.5567,1.5568,1.5568]},{"header":{"parameterUnit":"m.s-1","parameterCategory":1,"la1":30.2991,"la2":30.254,"lo1":-89.0895,"lo2":-89.0444,"dy":0.0017,"dx":0.0017,"nx":28,"ny":28,"refTime":"2026-02-11T09:00:00:Z","depth":0,"parameterNumber":3,"parameterNumberName":"V-component_of_WINDS"},"data":[0,0,0,0,0,0,0,0,0,0,0,0,0,0,0,0,0,0,0,0,0,0,0,0,0,0,0,0,0,0,0,0,0,0,0,0,0,0,0,0,0,0,0,0,0,0,0,0,0,0,0,0,0,0,0,0,0,0,0.5939,0.5939,0,0.596,0.596,0.596,0.5952,0.5952,0.5951,0.5951,0.5974,0.5975,0.5976,0,0,0,0,0,0,0,0,0,0,0,0,0,0.5893,0.5894,0.5939,0.5939,0.5939,0.596,0.596,0.596,0.5952,0.5952,0.5951,0.595,0.5974,0.5975,0.5976,0,0,0,0,0,0,0,0,0,0,0,0,0,0.5913,0.5894,0.5939,0.5938,0.5938,0.596,0.596,0.596,0.5952,0.5952,0.5951,0.595,0.5973,0.5975,0.5976,0.6001,0,0,0.5981,0.5982,0,0,0,0,0,0,0,0,0.5912,0.5915,0.5938,0.5938,0.5938,0.5953,0.5952,0.5974,0.5952,0.5947,0.5951,0.595,0.5968,0.597,0.5975,0.6002,0.6003,0.5981,0.5982,0.5983,0.5984,0,0,0,0,0,0,0,0.5911,0.5914,0.5947,0.5938,0.5938,0.5937,0.5939,0.5957,0.5961,0.5947,0.5947,0.5949,0.5968,0.5974,0.5976,0.6004,0.5981,0.5983,0.5984,0.5984,0.6051,0.6052,0,0,0,0,0,0,0.5909,0.5913,0.5947,0.5948,0.5923,0.5938,0.594,0.5949,0.5961,0.5962,0.595,0.5949,0.5971,0.5974,0.5976,0.6006,0.5983,0.5985,0.5986,0.6051,0.6052,0.6052,0,0,0,0,0,0,0.5908,0.5912,0.5946,0.593,0.5934,0.594,0.5949,0.5949,0.5956,0.5963,0.5964,0.5955,0.5971,0.5974,0.5995,0.6007,0.5985,0.5987,0.605,0.6051,0.6052,0.6066,0,0,0,0,0,0,0.5907,0.5912,0.5921,0.5931,0.5935,0.5964,0.595,0.595,0.5958,0.5957,0.5968,0.5969,0.597,0.5992,0.5996,0.6009,0.5988,0.6049,0.605,0.6052,0.6064,0.6067,0.607,0,0,0,0,0,0.5905,0.5925,0.5922,0.5926,0.5947,0.5964,0.5967,0.5967,0.5959,0.5969,0.5973,0.5969,0.6005,0.5995,0.5999,0.6012,0.6048,0.605,0.6051,0.6063,0.6067,0.607,0,0,0,0,0,0,0.5918,0.5926,0.5923,0.5946,0.5954,0.5963,0.5975,0.5971,0.5983,0.5981,0.5982,0.5984,0.6006,0.6011,0.5999,0.6036,0.6025,0.6028,0.6032,0.6036,0.6038,0.6037,0.5989,0,0,0,0,0,0.5923,0.5936,0.5943,0.5963,0.5967,0.597,0.5978,0.5977,0.5986,0.599,0.5996,0.6005,0.6018,0.6027,0.604,0.6064,0.6067,0.6075,0.6078,0.608,0.6083,0.6096,0.61,0.6058,0.6058,0.6058,0,0,0.5935,0.5941,0.5949,0.5965,0.5972,0.5985,0.5973,0.5988,0.5998,0.5992,0.6012,0.6017,0.6027,0.6049,0.606,0.6054,0.6095,0.6083,0.6085,0.6086,0.6098,0.6102,0.6106,0.606,0.6059,0.6059,0,0,0.5963,0.5969,0.5985,0.5992,0.6001,0.6003,0.6007,0.6016,0.6018,0.6037,0.6033,0.6045,0.6068,0.6076,0.6082,0.6111,0.6108,0.6116,0.613,0.6143,0.6146,0.6149,0.616,0.6164,0.6118,0.6118,0.6118,0,0.5976,0.5996,0.5995,0.601,0.6017,0.6011,0.6028,0.6034,0.6047,0.6053,0.6046,0.6074,0.6081,0.6105,0.6112,0.6117,0.6122,0.6115,0.6146,0.6149,0.6152,0.6162,0.6166,0.6119,0.6119,0.6119,0.6119,0,0.6012,0.6025,0.6038,0.605,0.6058,0.6074,0.6076,0.6084,0.6083,0.6085,0.6105,0.6112,0.6126,0.6132,0.6131,0.6155,0.6152,0.6146,0.6135,0.6156,0.6166,0.617,0.612,0.612,0.612,0.6119,0,0,0.605,0.6059,0.6064,0.6069,0.6078,0.6089,0.6105,0.6117,0.6125,0.6134,0.6147,0.6166,0.616,0.6168,0.6167,0.6178,0.6201,0.6171,0.6171,0.6176,0.6228,0.6233,0.6238,0.6198,0.6199,0.6199,0.6228,0,0.6079,0.6105,0.6104,0.6129,0.6141,0.6135,0.6148,0.6156,0.6158,0.6169,0.6172,0.6185,0.6177,0.6181,0.6192,0.6196,0.6211,0.6194,0.6211,0.6211,0.6209,0.6243,0.6248,0.6274,0.6231,0.6232,0.6232,0,0.6116,0.6125,0.6151,0.6158,0.6163,0.6175,0.6186,0.6196,0.6204,0.6205,0.6213,0.6211,0.6227,0.6214,0.6236,0.6224,0.6231,0.6234,0.6235,0.6237,0.6224,0.6246,0.6283,0.6287,0.6238,0.6238,0.6237,0,0.6141,0.616,0.6178,0.6182,0.619,0.6199,0.6203,0.621,0.6217,0.6227,0.6231,0.6243,0.625,0.6259,0.626,0.6251,0.6282,0.627,0.6283,0.6283,0.6291,0.6291,0.633,0.6295,0.6295,0.6294,0.6294,0,0.6174,0.619,0.6189,0.62,0.6218,0.6216,0.6234,0.6237,0.6243,0.6255,0.625,0.6261,0.6261,0.6273,0.6273,0.6291,0.6294,0.6296,0.6296,0.6297,0.6296,0.6302,0.63,0.6295,0.6295,0.6295,0.6295,0,0.6205,0.6205,0.6224,0.623,0.6231,0.6244,0.6249,0.626,0.6261,0.6276,0.6279,0.6282,0.6295,0.6296,0.6312,0.6312,0.6334,0.6332,0.6331,0.6331,0.6345,0.6344,0.6389,0.6395,0.6356,0.6356,0.6356,0,0.6226,0.6239,0.6245,0.6252,0.6256,0.6267,0.6274,0.6272,0.628,0.6289,0.6299,0.6311,0.6321,0.6343,0.6346,0.6358,0.6356,0.6372,0.6358,0.6358,0.6357,0.6357,0.6358,0.6374,0.6375,0.6375,0.6376,0,0.6264,0.6263,0.6273,0.6282,0.6291,0.6298,0.6306,0.6312,0.6311,0.632,0.6333,0.634,0.6355,0.6368,0.6379,0.6384,0.638,0.6379,0.6383,0.6384,0.6384,0.6384,0.6339,0.6379,0.6378,0.6378,0.6378,0.6378,0.6291,0.6301,0.6307,0.6318,0.6323,0.6329,0.6339,0.6341,0.6352,0.6363,0.6362,0.6376,0.6383,0.6397,0.6403,0.6414,0.6409,0.6415,0.6416,0.6418,0.6419,0.6381,0.6416,0.6416,0.6416,0.6416,0.6416,0,0.6329,0.6331,0.6341,0.6351,0.636,0.6354,0.6361,0.6369,0.6381,0.6388,0.6397,0.6411,0.6423,0.6427,0.6439,0.6447,0.6446,0.645,0.645,0.6451,0.6423,0.6419,0.6451,0.6451,0.6451,0.6451,0.6451,0.6451,0.6349,0.6366,0.6365,0.6384,0.6387,0.64,0.6405,0.6411,0.6416,0.6432,0.6442,0.6444,0.6449,0.6461,0.6471,0.6472,0.6477,0.6483,0.6483,0.6457,0.6453,0.645,0.6446,0.6483,0.6483,0.651,0.651,0.651]}]]